Location: Newark
(49.8348°N, 24.0280°E)
Time: 02:03:51
(UTC+00:00)

Explorer 7 - Pass Details

Date: 26 January 2020
Orbit: 485 x 679 km, 50.3° (Epoch: 25 February)

Event Time Altitude Azimuth Distance (km) Brightness Sun altitude
Rises 21:03:14 0° 232° (SW) 2,569 - -53.7°
Reaches altitude 10° 21:05:29 10° 225° (SW) 1,675 - -53.9°
Maximum altitude 21:09:04 42° 153° (SSE) 697 - -54.3°
Drops below altitude 10° 21:12:38 10° 82° (E) 1,671 - -54.6°
Sets 21:14:53 0° 75° (ENE) 2,563 - -54.8°
